Time,TemperatureF,DewpointF,PressureIn,WindDirection,WindDirectionDegrees,WindSpeedMPH,WindSpeedGustMPH,Humidity,HourlyPrecipIn,Conditions,Clouds,dailyrainin,SoftwareType,DateUTC
2013-02-26 00:00:00,32.5,27.1,30.09,SW,225,0.0,0.0,80,0.00,,---,0.00,VWS V14.01,2013-02-26 05:00:00,
2013-02-26 00:06:00,32.7,27.2,30.09,SSW,202,0.9,1.6,80,0.00,,---,0.00,VWS V14.01,2013-02-26 05:06:00,
2013-02-26 00:11:00,32.9,27.4,30.09,South,180,0.9,1.3,80,0.00,,---,0.00,VWS V14.01,2013-02-26 05:11:00,
2013-02-26 00:16:00,32.9,27.4,30.09,SW,225,0.0,0.0,80,0.00,,---,0.00,VWS V14.01,2013-02-26 05:16:00,
2013-02-26 00:21:00,32.9,27.4,30.09,South,180,0.0,0.0,80,0.00,,---,0.00,VWS V14.01,2013-02-26 05:21:00,
2013-02-26 00:26:00,32.7,27.2,30.09,SSW,202,0.0,0.0,80,0.00,,---,0.00,VWS V14.01,2013-02-26 05:26:00,
2013-02-26 00:31:00,32.7,27.2,30.09,SE,135,0.0,0.9,80,0.00,,---,0.00,VWS V14.01,2013-02-26 05:31:00,
2013-02-26 00:36:00,32.7,27.2,30.09,SE,135,0.0,0.0,80,0.00,,---,0.00,VWS V14.01,2013-02-26 05:36:00,
2013-02-26 00:41:00,32.5,27.1,30.09,SW,225,0.0,0.9,80,0.00,,---,0.00,VWS V14.01,2013-02-26 05:41:00,
2013-02-26 00:46:00,32.5,27.4,30.09,WSW,248,1.3,1.6,81,0.00,,---,0.00,VWS V14.01,2013-02-26 05:46:00,
2013-02-26 00:51:00,32.4,27.2,30.09,SW,225,0.0,0.0,81,0.00,,---,0.00,VWS V14.01,2013-02-26 05:51:00,
2013-02-26 00:56:00,32.2,27.0,30.09,SW,225,0.0,0.0,81,0.00,,---,0.00,VWS V14.01,2013-02-26 05:56:00,
2013-02-26 01:01:00,31.8,26.7,30.09,South,180,0.0,0.0,81,0.00,,---,0.00,VWS V14.01,2013-02-26 06:01:00,
2013-02-26 01:06:00,31.6,26.5,30.09,SW,225,0.0,0.0,81,0.00,,---,0.00,VWS V14.01,2013-02-26 06:06:00,
2013-02-26 01:11:00,31.3,26.1,30.09,SW,225,0.0,0.9,81,0.00,,---,0.00,VWS V14.01,2013-02-26 06:11:00,
2013-02-26 01:16:00,31.1,26.0,30.09,SW,225,0.0,0.0,81,0.00,,---,0.00,VWS V14.01,2013-02-26 06:16:00,
2013-02-26 01:21:00,30.9,26.1,30.09,South,180,0.0,0.0,82,0.00,,---,0.00,VWS V14.01,2013-02-26 06:21:00,
2013-02-26 01:27:00,30.7,25.9,30.09,South,180,0.0,0.0,82,0.00,,---,0.00,VWS V14.01,2013-02-26 06:27:00,
2013-02-26 01:32:00,30.7,25.9,30.09,South,180,0.0,0.0,82,0.00,,---,0.00,VWS V14.01,2013-02-26 06:32:00,
2013-02-26 01:37:00,30.6,26.0,30.09,SW,225,0.0,0.0,83,0.00,,---,0.00,VWS V14.01,2013-02-26 06:37:00,
2013-02-26 01:42:00,30.4,25.9,30.09,SW,225,0.0,0.0,83,0.00,,---,0.00,VWS V14.01,2013-02-26 06:42:00,
2013-02-26 01:47:00,30.2,25.7,30.09,WSW,248,2.0,2.0,83,0.00,,---,0.00,VWS V14.01,2013-02-26 06:47:00,
2013-02-26 01:52:00,30.2,26.0,30.09,SW,225,0.0,0.0,84,0.00,,---,0.00,VWS V14.01,2013-02-26 06:52:00,
2013-02-26 01:57:00,30.2,26.0,30.09,SW,225,0.0,0.0,84,0.00,,---,0.00,VWS V14.01,2013-02-26 06:57:00,
2013-02-26 02:02:00,30.0,25.8,30.09,SW,225,0.0,0.0,84,0.00,,---,0.00,VWS V14.01,2013-02-26 07:02:00,
2013-02-26 02:07:00,29.8,25.6,30.09,SW,225,0.0,0.0,84,0.00,,---,0.00,VWS V14.01,2013-02-26 07:07:00,
2013-02-26 02:12:00,29.7,25.4,30.09,SW,225,0.0,0.0,84,0.00,,---,0.00,VWS V14.01,2013-02-26 07:12:00,
2013-02-26 02:17:00,29.7,25.4,30.09,SW,225,0.0,0.0,84,0.00,,---,0.00,VWS V14.01,2013-02-26 07:17:00,
2013-02-26 02:22:00,29.5,25.5,30.09,SW,225,0.0,0.0,85,0.00,,---,0.00,VWS V14.01,2013-02-26 07:22:00,
2013-02-26 02:27:00,29.3,25.4,30.09,SW,225,0.0,0.0,85,0.00,,---,0.00,VWS V14.01,2013-02-26 07:27:00,
2013-02-26 02:33:00,29.3,25.4,30.09,SW,225,0.0,0.0,85,0.00,,---,0.00,VWS V14.01,2013-02-26 07:33:00,
2013-02-26 02:38:00,29.1,25.2,30.09,SW,225,0.0,0.0,85,0.00,,---,0.00,VWS V14.01,2013-02-26 07:38:00,
2013-02-26 02:43:00,28.9,25.0,30.09,SW,225,0.0,0.0,85,0.00,,---,0.00,VWS V14.01,2013-02-26 07:43:00,
2013-02-26 02:48:00,28.8,24.8,30.09,SW,225,0.0,0.0,85,0.00,,---,0.00,VWS V14.01,2013-02-26 07:48:00,
2013-02-26 02:53:00,28.8,25.1,30.09,SW,225,0.0,0.0,86,0.00,,---,0.00,VWS V14.01,2013-02-26 07:53:00,
2013-02-26 02:58:00,28.6,24.9,30.09,SW,225,0.0,0.0,86,0.00,,---,0.00,VWS V14.01,2013-02-26 07:58:00,
2013-02-26 03:03:00,28.6,24.9,30.09,SW,225,0.0,0.0,86,0.00,,---,0.00,VWS V14.01,2013-02-26 08:03:00,
2013-02-26 03:08:00,28.6,24.9,30.09,SW,225,0.0,0.0,86,0.00,,---,0.00,VWS V14.01,2013-02-26 08:08:00,
2013-02-26 03:13:00,28.6,24.9,30.12,WSW,248,0.0,0.0,86,0.00,,---,0.00,VWS V14.01,2013-02-26 08:13:00,
2013-02-26 03:18:00,28.8,25.4,30.12,WSW,248,0.0,0.0,87,0.00,,---,0.00,VWS V14.01,2013-02-26 08:18:00,
2013-02-26 03:23:00,29.1,25.7,30.12,SW,225,1.3,1.3,87,0.00,,---,0.00,VWS V14.01,2013-02-26 08:23:00,
2013-02-26 03:28:00,29.3,25.9,30.12,WSW,248,0.0,0.0,87,0.00,,---,0.00,VWS V14.01,2013-02-26 08:28:00,
2013-02-26 03:34:00,29.7,26.3,30.12,WSW,248,0.0,0.0,87,0.00,,---,0.00,VWS V14.01,2013-02-26 08:34:00,
2013-02-26 03:39:00,29.8,26.5,30.12,WSW,248,0.0,0.0,87,0.00,,---,0.00,VWS V14.01,2013-02-26 08:39:00,
2013-02-26 03:44:00,29.5,26.1,30.12,WSW,248,0.0,0.0,87,0.00,,---,0.00,VWS V14.01,2013-02-26 08:44:00,
2013-02-26 03:49:00,29.3,25.9,30.12,WSW,248,0.0,0.0,87,0.00,,---,0.00,VWS V14.01,2013-02-26 08:49:00,
2013-02-26 03:54:00,29.1,25.7,30.12,WSW,248,0.0,0.0,87,0.00,,---,0.00,VWS V14.01,2013-02-26 08:54:00,
2013-02-26 03:59:00,28.9,25.6,30.12,WSW,248,0.0,0.0,87,0.00,,---,0.00,VWS V14.01,2013-02-26 08:59:00,
2013-02-26 04:04:00,28.9,25.6,30.12,WSW,248,0.0,0.0,87,0.00,,---,0.00,VWS V14.01,2013-02-26 09:04:00,
2013-02-26 04:09:00,28.8,25.4,30.12,WSW,248,0.0,0.0,87,0.00,,---,0.00,VWS V14.01,2013-02-26 09:09:00,
2013-02-26 04:14:00,28.6,25.2,30.12,WSW,248,0.0,0.0,87,0.00,,---,0.00,VWS V14.01,2013-02-26 09:14:00,
2013-02-26 04:19:00,28.6,25.2,30.12,SW,225,0.0,0.0,87,0.00,,---,0.00,VWS V14.01,2013-02-26 09:19:00,
2013-02-26 04:24:00,28.4,25.3,30.12,SW,225,1.1,1.3,88,0.00,,---,0.00,VWS V14.01,2013-02-26 09:24:00,
2013-02-26 04:29:00,28.4,25.3,30.12,SW,225,0.0,0.0,88,0.00,,---,0.00,VWS V14.01,2013-02-26 09:29:00,
2013-02-26 04:35:00,28.4,25.3,30.12,SW,225,0.0,0.0,88,0.00,,---,0.00,VWS V14.01,2013-02-26 09:35:00,
2013-02-26 04:40:00,28.4,25.3,30.12,SW,225,1.3,1.3,88,0.00,,---,0.00,VWS V14.01,2013-02-26 09:40:00,
2013-02-26 04:45:00,28.4,25.3,30.12,SW,225,0.0,0.0,88,0.00,,---,0.00,VWS V14.01,2013-02-26 09:45:00,
2013-02-26 04:50:00,28.4,25.6,30.12,SW,225,0.0,0.0,89,0.00,,---,0.00,VWS V14.01,2013-02-26 09:50:00,
2013-02-26 04:55:00,28.6,25.5,30.12,SW,225,0.0,0.0,88,0.00,,---,0.00,VWS V14.01,2013-02-26 09:55:00,
2013-02-26 05:00:00,28.6,25.5,30.12,SW,225,0.0,0.0,88,0.00,,---,0.00,VWS V14.01,2013-02-26 10:00:00,
2013-02-26 05:05:00,28.6,25.5,30.12,SW,225,0.0,0.0,88,0.00,,---,0.00,VWS V14.01,2013-02-26 10:05:00,
2013-02-26 05:10:00,28.6,25.5,30.12,SW,225,0.0,0.0,88,0.00,,---,0.00,VWS V14.01,2013-02-26 10:10:00,
2013-02-26 05:15:00,28.6,25.8,30.12,SW,225,0.0,0.0,89,0.00,,---,0.00,VWS V14.01,2013-02-26 10:15:00,
2013-02-26 05:20:00,28.6,25.8,30.12,SW,225,0.0,0.0,89,0.00,,---,0.00,VWS V14.01,2013-02-26 10:20:00,
2013-02-26 05:25:00,28.6,25.8,30.12,SW,225,0.0,0.0,89,0.00,,---,0.00,VWS V14.01,2013-02-26 10:25:00,
2013-02-26 05:30:00,28.6,25.8,30.12,SW,225,0.0,0.0,89,0.00,,---,0.00,VWS V14.01,2013-02-26 10:30:00,
2013-02-26 05:36:00,28.6,25.8,30.12,SW,225,0.0,0.0,89,0.00,,---,0.00,VWS V14.01,2013-02-26 10:36:00,
2013-02-26 05:41:00,28.6,25.8,30.15,SW,225,0.0,0.0,89,0.00,,---,0.00,VWS V14.01,2013-02-26 10:41:00,
2013-02-26 05:46:00,28.6,25.8,30.15,SW,225,0.0,0.0,89,0.00,,---,0.00,VWS V14.01,2013-02-26 10:46:00,
2013-02-26 05:51:00,28.6,25.8,30.15,SW,225,0.0,0.0,89,0.00,,---,0.00,VWS V14.01,2013-02-26 10:51:00,
2013-02-26 05:56:00,28.6,25.8,30.15,SW,225,0.0,0.0,89,0.00,,---,0.00,VWS V14.01,2013-02-26 10:56:00,
2013-02-26 06:01:00,28.6,25.8,30.15,SW,225,0.0,0.0,89,0.00,,---,0.00,VWS V14.01,2013-02-26 11:01:00,
2013-02-26 06:06:00,28.6,25.8,30.15,SW,225,0.0,0.0,89,0.00,,---,0.00,VWS V14.01,2013-02-26 11:06:00,
2013-02-26 06:11:00,28.4,25.6,30.15,SW,225,0.0,0.0,89,0.00,,---,0.00,VWS V14.01,2013-02-26 11:11:00,
2013-02-26 06:16:00,28.2,25.4,30.15,SW,225,0.0,0.0,89,0.00,,---,0.00,VWS V14.01,2013-02-26 11:16:00,
2013-02-26 06:21:00,28.0,25.2,30.15,SW,225,0.0,0.0,89,0.00,,---,0.00,VWS V14.01,2013-02-26 11:21:00,
2013-02-26 06:26:00,28.0,25.5,30.15,WSW,248,0.0,0.0,90,0.00,,---,0.00,VWS V14.01,2013-02-26 11:26:00,
2013-02-26 06:31:00,28.2,25.7,30.15,WSW,248,0.0,0.0,90,0.00,,---,0.00,VWS V14.01,2013-02-26 11:31:00,
2013-02-26 06:36:00,28.2,25.7,30.15,WSW,248,0.0,0.0,90,0.00,,---,0.00,VWS V14.01,2013-02-26 11:36:00,
2013-02-26 06:42:00,28.2,25.7,30.15,WSW,248,0.0,0.0,90,0.00,,---,0.00,VWS V14.01,2013-02-26 11:42:00,
2013-02-26 06:47:00,28.4,25.9,30.15,WSW,248,0.0,0.0,90,0.00,,---,0.00,VWS V14.01,2013-02-26 11:47:00,
2013-02-26 06:52:00,28.6,26.0,30.15,WSW,248,0.0,0.0,90,0.00,,---,0.00,VWS V14.01,2013-02-26 11:52:00,
2013-02-26 06:57:00,28.4,26.1,30.15,WSW,248,0.0,0.0,91,0.00,,---,0.00,VWS V14.01,2013-02-26 11:57:00,
2013-02-26 07:02:00,28.4,26.1,30.15,WSW,248,0.0,0.0,91,0.00,,---,0.00,VWS V14.01,2013-02-26 12:02:00,
2013-02-26 07:07:00,28.6,26.0,30.15,WSW,248,0.0,0.0,90,0.00,,---,0.00,VWS V14.01,2013-02-26 12:07:00,
2013-02-26 07:12:00,28.6,26.0,30.15,WSW,248,0.0,0.0,90,0.00,,---,0.00,VWS V14.01,2013-02-26 12:12:00,
2013-02-26 07:17:00,28.9,26.6,30.15,WSW,248,0.0,0.0,91,0.00,,---,0.00,VWS V14.01,2013-02-26 12:17:00,
2013-02-26 07:22:00,29.1,26.8,30.15,WSW,248,0.0,0.0,91,0.00,,---,0.00,VWS V14.01,2013-02-26 12:22:00,
2013-02-26 07:27:00,29.3,27.3,30.15,WSW,248,0.0,0.0,92,0.00,,---,0.00,VWS V14.01,2013-02-26 12:27:00,
2013-02-26 07:32:00,29.7,27.6,30.15,South,180,0.0,0.0,92,0.00,,---,0.00,VWS V14.01,2013-02-26 12:32:00,
2013-02-26 07:38:00,30.2,28.2,30.15,South,180,0.0,0.0,92,0.00,,---,0.00,VWS V14.01,2013-02-26 12:38:00,
2013-02-26 07:43:00,30.4,28.3,30.15,South,180,0.0,0.0,92,0.00,,---,0.00,VWS V14.01,2013-02-26 12:43:00,
2013-02-26 07:48:00,30.9,28.9,30.15,SSE,158,0.0,0.0,92,0.00,,---,0.00,VWS V14.01,2013-02-26 12:48:00,
2013-02-26 07:53:00,31.1,29.0,30.15,SSW,202,0.0,0.0,92,0.00,,---,0.00,VWS V14.01,2013-02-26 12:53:00,
2013-02-26 07:58:00,31.5,29.4,30.15,SSW,202,0.0,0.9,92,0.00,,---,0.00,VWS V14.01,2013-02-26 12:58:00,
2013-02-26 08:03:00,31.8,29.8,30.15,SSW,202,0.0,0.0,92,0.00,,---,0.00,VWS V14.01,2013-02-26 13:03:00,
2013-02-26 08:08:00,32.2,30.1,30.15,SSW,202,0.0,0.0,92,0.00,,---,0.00,VWS V14.01,2013-02-26 13:08:00,
2013-02-26 08:13:00,32.4,30.3,30.18,SW,225,2.5,2.5,92,0.00,,---,0.00,VWS V14.01,2013-02-26 13:13:00,
2013-02-26 08:18:00,32.5,30.5,30.18,SW,225,2.0,2.0,92,0.00,,---,0.00,VWS V14.01,2013-02-26 13:18:00,
2013-02-26 08:23:00,32.9,30.8,30.18,SSW,202,0.0,0.0,92,0.00,,---,0.00,VWS V14.01,2013-02-26 13:23:00,
2013-02-26 08:28:00,33.3,31.2,30.18,SSW,202,0.0,0.0,92,0.00,,---,0.00,VWS V14.01,2013-02-26 13:28:00,
2013-02-26 08:33:00,33.8,31.7,30.18,South,180,0.0,0.0,92,0.00,,---,0.00,VWS V14.01,2013-02-26 13:33:00,
2013-02-26 08:38:00,34.0,31.6,30.18,SSW,202,0.0,0.0,91,0.00,,---,0.00,VWS V14.01,2013-02-26 13:38:00,
2013-02-26 08:43:00,34.5,32.2,30.18,ESE,112,0.0,0.0,91,0.00,,---,0.00,VWS V14.01,2013-02-26 13:43:00,
2013-02-26 08:48:00,34.7,32.3,30.18,East,90,1.6,1.6,91,0.00,,---,0.00,VWS V14.01,2013-02-26 13:48:00,
2013-02-26 08:53:00,34.9,32.2,30.18,SE,135,0.0,0.0,90,0.00,,---,0.00,VWS V14.01,2013-02-26 13:53:00,
2013-02-26 08:58:00,35.2,32.6,30.18,SSE,158,0.0,0.0,90,0.00,,---,0.00,VWS V14.01,2013-02-26 13:58:00,
2013-02-26 09:03:00,35.4,32.5,30.18,SSE,158,0.0,0.0,89,0.00,,---,0.00,VWS V14.01,2013-02-26 14:03:00,
2013-02-26 09:09:00,35.8,32.6,30.18,ESE,112,0.0,0.0,88,0.00,,---,0.00,VWS V14.01,2013-02-26 14:09:00,
2013-02-26 09:14:00,36.1,32.9,30.18,East,90,0.0,0.0,88,0.00,,---,0.00,VWS V14.01,2013-02-26 14:14:00,
2013-02-26 09:19:00,36.5,33.3,30.18,SE,135,2.5,2.5,88,0.00,,---,0.00,VWS V14.01,2013-02-26 14:19:00,
2013-02-26 09:24:00,37.0,33.8,30.18,SW,225,1.1,2.0,88,0.00,,---,0.00,VWS V14.01,2013-02-26 14:24:00,
2013-02-26 09:29:00,37.6,34.3,30.18,SE,135,0.9,1.3,88,0.00,,---,0.00,VWS V14.01,2013-02-26 14:29:00,
2013-02-26 09:34:00,38.1,34.6,30.18,ESE,112,1.1,2.0,87,0.00,,---,0.00,VWS V14.01,2013-02-26 14:34:00,
2013-02-26 09:39:00,38.7,33.7,30.18,NNE,22,2.0,2.2,82,0.00,,---,0.00,VWS V14.01,2013-02-26 14:39:00,
2013-02-26 09:44:00,39.2,34.2,30.18,South,180,0.0,0.0,82,0.00,,---,0.00,VWS V14.01,2013-02-26 14:44:00,
2013-02-26 09:49:00,39.6,33.6,30.18,ENE,68,1.1,1.6,79,0.00,,---,0.00,VWS V14.01,2013-02-26 14:49:00,
2013-02-26 09:54:00,39.9,33.6,30.18,NE,45,1.3,2.0,78,0.00,,---,0.00,VWS V14.01,2013-02-26 14:54:00,
2013-02-26 09:59:00,40.1,32.8,30.18,ESE,112,0.9,1.3,75,0.00,,---,0.00,VWS V14.01,2013-02-26 14:59:00,
2013-02-26 10:04:00,40.3,31.6,30.18,North,0,2.0,3.8,71,0.00,,---,0.00,VWS V14.01,2013-02-26 15:04:00,
2013-02-26 10:09:00,40.5,31.1,30.18,NE,45,1.1,3.6,69,0.00,,---,0.00,VWS V14.01,2013-02-26 15:09:00,
2013-02-26 10:15:00,40.3,30.2,30.18,NNE,22,3.1,4.7,67,0.00,,---,0.00,VWS V14.01,2013-02-26 15:15:00,
2013-02-26 10:20:00,40.3,28.7,30.18,North,0,2.9,4.3,63,0.00,,---,0.00,VWS V14.01,2013-02-26 15:20:00,
2013-02-26 10:25:00,40.5,29.3,30.18,NE,45,3.1,3.1,64,0.00,,---,0.00,VWS V14.01,2013-02-26 15:25:00,
2013-02-26 10:30:00,40.5,29.3,30.18,NNE,22,2.7,3.8,64,0.00,,---,0.00,VWS V14.01,2013-02-26 15:30:00,
2013-02-26 10:35:00,40.5,29.3,30.18,NNE,22,4.7,4.7,64,0.00,,---,0.00,VWS V14.01,2013-02-26 15:35:00,
2013-02-26 10:40:00,40.8,30.0,30.18,NE,45,1.1,1.3,65,0.00,,---,0.00,VWS V14.01,2013-02-26 15:40:00,
2013-02-26 10:45:00,40.8,28.8,30.18,North,0,1.3,3.6,62,0.00,,---,0.00,VWS V14.01,2013-02-26 15:45:00,
2013-02-26 10:50:00,41.2,29.2,30.18,NNE,22,1.3,3.4,62,0.00,,---,0.00,VWS V14.01,2013-02-26 15:50:00,
2013-02-26 10:55:00,41.5,30.3,30.18,SSE,158,1.6,3.1,64,0.00,,---,0.00,VWS V14.01,2013-02-26 15:55:00,
2013-02-26 11:00:00,41.9,29.5,30.18,ENE,68,1.3,2.7,61,0.00,,---,0.00,VWS V14.01,2013-02-26 16:00:00,
2013-02-26 11:06:00,42.1,29.2,30.18,WNW,292,2.0,3.1,60,0.00,,---,0.00,VWS V14.01,2013-02-26 16:06:00,
2013-02-26 11:11:00,42.3,29.4,30.18,SSW,202,2.7,3.1,60,0.00,,---,0.00,VWS V14.01,2013-02-26 16:11:00,
2013-02-26 11:16:00,42.6,29.3,30.18,ESE,112,1.3,1.3,59,0.00,,---,0.00,VWS V14.01,2013-02-26 16:16:00,
2013-02-26 11:21:00,42.6,29.3,30.18,NNE,22,0.0,2.7,59,0.00,,---,0.00,VWS V14.01,2013-02-26 16:21:00,
2013-02-26 11:26:00,42.3,27.7,30.18,NNE,22,1.6,2.0,56,0.00,,---,0.00,VWS V14.01,2013-02-26 16:26:00,
2013-02-26 11:31:00,42.6,29.3,30.18,South,180,3.1,3.1,59,0.00,,---,0.00,VWS V14.01,2013-02-26 16:31:00,
2013-02-26 11:36:00,43.0,29.6,30.18,SSE,158,0.0,2.0,59,0.00,,---,0.00,VWS V14.01,2013-02-26 16:36:00,
2013-02-26 11:41:00,43.0,29.2,30.18,ESE,112,2.5,3.1,58,0.00,,---,0.00,VWS V14.01,2013-02-26 16:41:00,
2013-02-26 11:47:00,43.2,29.0,30.18,WSW,248,2.0,2.0,57,0.00,,---,0.00,VWS V14.01,2013-02-26 16:47:00,
2013-02-26 11:52:00,43.3,29.6,30.18,SSE,158,1.6,1.6,58,0.00,,---,0.00,VWS V14.01,2013-02-26 16:52:00,
2013-02-26 11:57:00,43.0,28.4,30.18,South,180,2.5,2.9,56,0.00,,---,0.00,VWS V14.01,2013-02-26 16:57:00,
2013-02-26 12:02:00,43.0,28.4,30.18,SSE,158,2.7,2.9,56,0.00,,---,0.00,VWS V14.01,2013-02-26 17:02:00,
2013-02-26 12:07:00,42.4,27.4,30.18,SW,225,1.3,1.3,55,0.00,,---,0.00,VWS V14.01,2013-02-26 17:07:00,
2013-02-26 12:12:00,42.4,27.4,30.15,NNW,338,2.2,2.7,55,0.00,,---,0.00,VWS V14.01,2013-02-26 17:12:00,
2013-02-26 12:17:00,42.4,27.4,30.15,SE,135,1.6,2.2,55,0.00,,---,0.00,VWS V14.01,2013-02-26 17:17:00,
2013-02-26 12:22:00,42.4,27.0,30.15,ENE,68,1.3,1.3,54,0.00,,---,0.00,VWS V14.01,2013-02-26 17:22:00,
2013-02-26 12:27:00,42.4,27.4,30.15,NE,45,1.6,2.0,55,0.00,,---,0.00,VWS V14.01,2013-02-26 17:27:00,
2013-02-26 12:33:00,42.4,27.4,30.15,SSW,202,0.9,2.7,55,0.00,,---,0.00,VWS V14.01,2013-02-26 17:33:00,
2013-02-26 12:38:00,42.3,27.3,30.15,NNE,22,1.1,2.2,55,0.00,,---,0.00,VWS V14.01,2013-02-26 17:38:00,
2013-02-26 12:43:00,42.6,27.6,30.15,NW,315,0.9,1.6,55,0.00,,---,0.00,VWS V14.01,2013-02-26 17:43:00,
2013-02-26 12:48:00,42.3,26.8,30.15,North,0,2.9,2.9,54,0.00,,---,0.00,VWS V14.01,2013-02-26 17:48:00,
2013-02-26 12:53:00,42.1,27.1,30.15,WNW,292,1.3,2.0,55,0.00,,---,0.00,VWS V14.01,2013-02-26 17:53:00,
2013-02-26 12:58:00,42.3,26.8,30.15,ESE,112,1.1,1.3,54,0.00,,---,0.00,VWS V14.01,2013-02-26 17:58:00,
2013-02-26 13:03:00,42.6,27.6,30.15,West,270,1.3,2.0,55,0.00,,---,0.00,VWS V14.01,2013-02-26 18:03:00,
2013-02-26 13:08:00,42.6,27.1,30.15,South,180,1.6,2.0,54,0.00,,---,0.00,VWS V14.01,2013-02-26 18:08:00,
2013-02-26 13:13:00,42.4,26.5,30.15,SSE,158,0.0,3.1,53,0.00,,---,0.00,VWS V14.01,2013-02-26 18:13:00,
2013-02-26 13:18:00,42.4,27.0,30.15,NE,45,2.7,2.7,54,0.00,,---,0.00,VWS V14.01,2013-02-26 18:18:00,
2013-02-26 13:23:00,42.3,26.8,30.15,North,0,3.6,3.6,54,0.00,,---,0.00,VWS V14.01,2013-02-26 18:23:00,
2013-02-26 13:28:00,41.9,26.5,30.15,North,0,1.6,2.2,54,0.00,,---,0.00,VWS V14.01,2013-02-26 18:28:00,
2013-02-26 13:34:00,42.1,26.6,30.15,SSW,202,1.6,3.1,54,0.00,,---,0.00,VWS V14.01,2013-02-26 18:34:00,
2013-02-26 13:39:00,42.3,27.3,30.15,SSW,202,0.9,0.9,55,0.00,,---,0.00,VWS V14.01,2013-02-26 18:39:00,
2013-02-26 13:44:00,42.3,26.8,30.15,WSW,248,1.1,1.1,54,0.00,,---,0.00,VWS V14.01,2013-02-26 18:44:00,
2013-02-26 13:49:00,42.3,26.8,30.15,SSW,202,2.0,2.7,54,0.00,,---,0.00,VWS V14.01,2013-02-26 18:49:00,
2013-02-26 13:54:00,42.3,26.4,30.15,NNE,22,2.0,2.2,53,0.00,,---,0.00,VWS V14.01,2013-02-26 18:54:00,
2013-02-26 13:59:00,42.3,26.4,30.15,NE,45,1.3,2.0,53,0.00,,---,0.00,VWS V14.01,2013-02-26 18:59:00,
2013-02-26 14:04:00,42.1,26.2,30.15,ESE,112,0.9,2.2,53,0.00,,---,0.00,VWS V14.01,2013-02-26 19:04:00,
2013-02-26 14:09:00,42.3,26.4,30.15,SSE,158,2.7,2.7,53,0.00,,---,0.00,VWS V14.01,2013-02-26 19:09:00,
2013-02-26 14:14:00,42.3,26.4,30.15,SE,135,1.1,1.6,53,0.00,,---,0.00,VWS V14.01,2013-02-26 19:14:00,
2013-02-26 14:19:00,42.3,26.4,30.15,ESE,112,1.3,2.2,53,0.00,,---,0.00,VWS V14.01,2013-02-26 19:19:00,
2013-02-26 14:25:00,42.3,26.4,30.15,ESE,112,2.7,2.7,53,0.00,,---,0.00,VWS V14.01,2013-02-26 19:25:00,
2013-02-26 14:30:00,42.3,26.4,30.15,South,180,1.6,1.6,53,0.00,,---,0.00,VWS V14.01,2013-02-26 19:30:00,
2013-02-26 14:35:00,42.3,26.8,30.15,SE,135,3.1,3.1,54,0.00,,---,0.00,VWS V14.01,2013-02-26 19:35:00,
2013-02-26 14:40:00,42.1,26.6,30.15,SSE,158,2.2,2.2,54,0.00,,---,0.00,VWS V14.01,2013-02-26 19:40:00,
2013-02-26 14:45:00,41.9,26.5,30.15,South,180,1.3,1.3,54,0.00,,---,0.00,VWS V14.01,2013-02-26 19:45:00,
2013-02-26 14:50:00,41.9,26.9,30.15,North,0,1.6,2.5,55,0.00,,---,0.00,VWS V14.01,2013-02-26 19:50:00,
2013-02-26 14:55:00,41.7,26.8,30.15,East,90,1.1,1.6,55,0.00,,---,0.00,VWS V14.01,2013-02-26 19:55:00,
2013-02-26 15:00:00,41.5,27.0,30.15,ESE,112,1.6,2.0,56,0.00,,---,0.00,VWS V14.01,2013-02-26 20:00:00,
2013-02-26 15:05:00,41.5,27.0,30.15,SE,135,2.2,2.2,56,0.00,,---,0.00,VWS V14.01,2013-02-26 20:05:00,
2013-02-26 15:10:00,41.5,27.0,30.12,North,0,1.1,2.0,56,0.00,,---,0.00,VWS V14.01,2013-02-26 20:10:00,
2013-02-26 15:15:00,41.4,27.3,30.12,WSW,248,2.0,2.0,57,0.00,,---,0.00,VWS V14.01,2013-02-26 20:15:00,
2013-02-26 15:20:00,41.2,27.5,30.12,SSE,158,1.1,1.3,58,0.00,,---,0.00,VWS V14.01,2013-02-26 20:20:00,
2013-02-26 15:26:00,41.2,28.0,30.12,NNW,338,1.3,2.2,59,0.00,,---,0.00,VWS V14.01,2013-02-26 20:26:00,
2013-02-26 15:31:00,41.4,28.1,30.12,SE,135,1.1,2.2,59,0.00,,---,0.00,VWS V14.01,2013-02-26 20:31:00,
2013-02-26 15:36:00,41.5,28.3,30.12,SE,135,1.3,1.3,59,0.00,,---,0.00,VWS V14.01,2013-02-26 20:36:00,
2013-02-26 15:41:00,41.2,28.4,30.12,South,180,1.1,1.6,60,0.00,,---,0.00,VWS V14.01,2013-02-26 20:41:00,
2013-02-26 15:46:00,41.2,28.4,30.12,SE,135,1.1,1.1,60,0.00,,---,0.00,VWS V14.01,2013-02-26 20:46:00,
2013-02-26 15:51:00,41.0,27.8,30.12,South,180,1.3,2.0,59,0.00,,---,0.00,VWS V14.01,2013-02-26 20:51:00,
2013-02-26 15:56:00,41.0,27.8,30.12,ESE,112,1.6,1.6,59,0.00,,---,0.00,VWS V14.01,2013-02-26 20:56:00,
2013-02-26 16:01:00,40.8,27.6,30.12,South,180,2.2,2.2,59,0.00,,---,0.00,VWS V14.01,2013-02-26 21:01:00,
2013-02-26 16:06:00,40.6,27.0,30.12,SSW,202,2.2,2.9,58,0.00,,---,0.00,VWS V14.01,2013-02-26 21:06:00,
2013-02-26 16:11:00,40.6,26.6,30.12,SSW,202,1.1,1.1,57,0.00,,---,0.00,VWS V14.01,2013-02-26 21:11:00,
2013-02-26 16:16:00,40.3,26.3,30.12,SSE,158,2.5,2.7,57,0.00,,---,0.00,VWS V14.01,2013-02-26 21:16:00,
2013-02-26 16:21:00,40.3,26.3,30.12,South,180,2.5,2.5,57,0.00,,---,0.00,VWS V14.01,2013-02-26 21:21:00,
2013-02-26 16:26:00,40.1,26.1,30.12,South,180,1.1,2.2,57,0.00,,---,0.00,VWS V14.01,2013-02-26 21:26:00,
2013-02-26 16:31:00,39.9,25.9,30.12,SE,135,1.3,1.6,57,0.00,,---,0.00,VWS V14.01,2013-02-26 21:31:00,
2013-02-26 16:36:00,39.9,25.5,30.12,SE,135,1.3,1.6,56,0.00,,---,0.00,VWS V14.01,2013-02-26 21:36:00,
2013-02-26 16:41:00,39.7,24.9,30.12,ESE,112,2.5,2.7,55,0.00,,---,0.00,VWS V14.01,2013-02-26 21:41:00,
2013-02-26 16:46:00,39.4,24.6,30.12,SE,135,2.2,3.4,55,0.00,,---,0.00,VWS V14.01,2013-02-26 21:46:00,
2013-02-26 16:51:00,39.2,24.4,30.12,SSE,158,1.6,2.0,55,0.00,,---,0.00,VWS V14.01,2013-02-26 21:51:00,
2013-02-26 16:56:00,39.2,24.0,30.12,SSE,158,2.5,3.6,54,0.00,,---,0.00,VWS V14.01,2013-02-26 21:56:00,
2013-02-26 17:01:00,38.8,24.1,30.12,ESE,112,2.0,2.2,55,0.00,,---,0.00,VWS V14.01,2013-02-26 22:01:00,
2013-02-26 17:06:00,38.7,23.9,30.12,South,180,0.9,2.2,55,0.00,,---,0.00,VWS V14.01,2013-02-26 22:06:00,
2013-02-26 17:11:00,38.5,23.7,30.12,SSW,202,1.3,2.9,55,0.00,,---,0.00,VWS V14.01,2013-02-26 22:11:00,
2013-02-26 17:16:00,38.1,23.4,30.12,SSE,158,1.3,3.6,55,0.00,,---,0.00,VWS V14.01,2013-02-26 22:16:00,
2013-02-26 17:21:00,37.9,23.2,30.12,SE,135,1.3,2.2,55,0.00,,---,0.00,VWS V14.01,2013-02-26 22:21:00,
2013-02-26 17:26:00,37.8,23.5,30.12,SSE,158,0.0,1.3,56,0.00,,---,0.00,VWS V14.01,2013-02-26 22:26:00,
2013-02-26 17:31:00,37.6,23.3,30.12,SE,135,1.3,1.3,56,0.00,,---,0.00,VWS V14.01,2013-02-26 22:31:00,
2013-02-26 17:36:00,37.4,23.1,30.12,SW,225,1.6,1.6,56,0.00,,---,0.00,VWS V14.01,2013-02-26 22:36:00,
2013-02-26 17:41:00,37.2,23.0,30.12,SSE,158,1.1,1.3,56,0.00,,---,0.00,VWS V14.01,2013-02-26 22:41:00,
2013-02-26 17:46:00,37.0,23.2,30.12,ESE,112,1.1,1.1,57,0.00,,---,0.00,VWS V14.01,2013-02-26 22:46:00,
2013-02-26 17:51:00,36.9,23.1,30.12,SSE,158,1.1,1.6,57,0.00,,---,0.00,VWS V14.01,2013-02-26 22:51:00,
2013-02-26 17:56:00,36.9,23.1,30.12,SE,135,1.3,1.6,57,0.00,,---,0.00,VWS V14.01,2013-02-26 22:56:00,
2013-02-26 18:01:00,36.7,22.9,30.12,ESE,112,1.3,2.2,57,0.00,,---,0.00,VWS V14.01,2013-02-26 23:01:00,
2013-02-26 18:06:00,36.7,22.9,30.12,SSE,158,1.6,1.6,57,0.00,,---,0.00,VWS V14.01,2013-02-26 23:06:00,
2013-02-26 18:11:00,36.5,22.7,30.12,South,180,0.9,1.3,57,0.00,,---,0.00,VWS V14.01,2013-02-26 23:11:00,
2013-02-26 18:16:00,36.3,23.0,30.12,SSE,158,0.0,1.3,58,0.00,,---,0.00,VWS V14.01,2013-02-26 23:16:00,
2013-02-26 18:21:00,36.3,23.0,30.12,SE,135,1.1,1.3,58,0.00,,---,0.00,VWS V14.01,2013-02-26 23:21:00,
2013-02-26 18:26:00,36.3,23.0,30.12,South,180,1.3,2.5,58,0.00,,---,0.00,VWS V14.01,2013-02-26 23:26:00,
2013-02-26 18:31:00,36.3,23.4,30.12,SSE,158,1.1,1.1,59,0.00,,---,0.00,VWS V14.01,2013-02-26 23:31:00,
2013-02-26 18:36:00,36.3,23.4,30.12,SSE,158,0.9,1.1,59,0.00,,---,0.00,VWS V14.01,2013-02-26 23:36:00,
2013-02-26 18:41:00,36.3,23.4,30.12,ESE,112,2.0,2.0,59,0.00,,---,0.00,VWS V14.01,2013-02-26 23:41:00,
2013-02-26 18:46:00,36.1,23.6,30.12,ESE,112,1.3,2.2,60,0.00,,---,0.00,VWS V14.01,2013-02-26 23:46:00,
2013-02-26 18:51:00,36.1,24.0,30.12,SSE,158,0.9,0.9,61,0.00,,---,0.00,VWS V14.01,2013-02-26 23:51:00,
2013-02-26 18:56:00,36.0,23.8,30.12,SSE,158,0.0,0.0,61,0.00,,---,0.00,VWS V14.01,2013-02-26 23:56:00,
2013-02-26 19:01:00,36.0,24.2,30.12,South,180,0.0,1.3,62,0.00,,---,0.00,VWS V14.01,2013-02-27 00:01:00,
2013-02-26 19:06:00,35.8,24.0,30.12,South,180,2.5,2.5,62,0.00,,---,0.00,VWS V14.01,2013-02-27 00:06:00,
2013-02-26 19:11:00,36.0,24.6,30.09,SE,135,1.3,2.0,63,0.00,,---,0.00,VWS V14.01,2013-02-27 00:11:00,
2013-02-26 19:16:00,36.0,24.6,30.09,ESE,112,1.1,1.3,63,0.00,,---,0.00,VWS V14.01,2013-02-27 00:16:00,
2013-02-26 19:21:00,35.8,24.8,30.09,SSE,158,1.6,1.6,64,0.00,,---,0.00,VWS V14.01,2013-02-27 00:21:00,
2013-02-26 19:26:00,35.8,24.8,30.09,South,180,1.1,1.6,64,0.00,,---,0.00,VWS V14.01,2013-02-27 00:26:00,
2013-02-26 19:31:00,36.0,25.4,30.09,SSE,158,2.9,2.9,65,0.00,,---,0.00,VWS V14.01,2013-02-27 00:31:00,
2013-02-26 19:36:00,36.0,25.7,30.09,SSE,158,1.3,2.0,66,0.00,,---,0.00,VWS V14.01,2013-02-27 00:36:00,
2013-02-26 19:41:00,36.1,26.3,30.09,SSE,158,2.2,2.2,67,0.00,,---,0.00,VWS V14.01,2013-02-27 00:41:00,
2013-02-26 19:46:00,36.1,26.3,30.09,SE,135,0.0,1.3,67,0.00,,---,0.00,VWS V14.01,2013-02-27 00:46:00,
2013-02-26 19:51:00,36.1,26.3,30.09,ESE,112,0.0,0.0,67,0.00,,---,0.00,VWS V14.01,2013-02-27 00:51:00,
2013-02-26 19:56:00,36.1,26.6,30.09,ESE,112,0.0,0.0,68,0.00,,---,0.00,VWS V14.01,2013-02-27 00:56:00,
2013-02-26 20:01:00,36.1,26.6,30.09,SE,135,0.9,0.9,68,0.00,,---,0.00,VWS V14.01,2013-02-27 01:01:00,
2013-02-26 20:06:00,36.1,26.6,30.09,SE,135,0.0,0.0,68,0.00,,---,0.00,VWS V14.01,2013-02-27 01:06:00,
2013-02-26 20:11:00,36.0,26.4,30.09,SSE,158,0.0,0.0,68,0.00,,---,0.00,VWS V14.01,2013-02-27 01:11:00,
2013-02-26 20:16:00,36.0,26.4,30.09,SE,135,0.0,0.0,68,0.00,,---,0.00,VWS V14.01,2013-02-27 01:16:00,
2013-02-26 20:21:00,36.0,26.8,30.09,SE,135,0.0,0.0,69,0.00,,---,0.00,VWS V14.01,2013-02-27 01:21:00,
2013-02-26 20:26:00,36.0,26.8,30.09,SSE,158,0.0,0.0,69,0.00,,---,0.00,VWS V14.01,2013-02-27 01:26:00,
2013-02-26 20:31:00,36.0,26.8,30.09,SSE,158,1.3,1.3,69,0.00,,---,0.00,VWS V14.01,2013-02-27 01:31:00,
2013-02-26 20:36:00,36.0,26.8,30.09,SSE,158,0.0,0.0,69,0.00,,---,0.00,VWS V14.01,2013-02-27 01:36:00,
2013-02-26 20:41:00,36.0,26.8,30.09,SSE,158,0.0,1.1,69,0.00,,---,0.00,VWS V14.01,2013-02-27 01:41:00,
2013-02-26 20:46:00,36.1,27.3,30.09,SSE,158,0.0,0.0,70,0.00,,---,0.00,VWS V14.01,2013-02-27 01:46:00,
2013-02-26 20:51:00,36.1,27.3,30.09,South,180,0.9,1.6,70,0.00,,---,0.00,VWS V14.01,2013-02-27 01:51:00,
2013-02-26 20:56:00,36.1,27.3,30.09,SSE,158,1.3,1.3,70,0.00,,---,0.00,VWS V14.01,2013-02-27 01:56:00,
2013-02-26 21:01:00,36.3,27.5,30.09,South,180,1.3,1.3,70,0.00,,---,0.00,VWS V14.01,2013-02-27 02:01:00,
2013-02-26 21:06:00,36.3,27.8,30.09,SE,135,1.3,2.2,71,0.00,,---,0.00,VWS V14.01,2013-02-27 02:06:00,
2013-02-26 21:12:00,36.5,28.0,30.09,SSE,158,1.3,1.3,71,0.00,,---,0.00,VWS V14.01,2013-02-27 02:12:00,
2013-02-26 21:17:00,36.5,28.0,30.09,South,180,1.3,2.0,71,0.00,,---,0.00,VWS V14.01,2013-02-27 02:17:00,
2013-02-26 21:22:00,36.7,28.2,30.09,SE,135,1.1,1.1,71,0.00,,---,0.00,VWS V14.01,2013-02-27 02:22:00,
2013-02-26 21:27:00,36.7,28.2,30.06,SSE,158,2.0,2.0,71,0.00,,---,0.00,VWS V14.01,2013-02-27 02:27:00,
2013-02-26 21:32:00,36.7,28.2,30.06,South,180,2.0,2.5,71,0.00,,---,0.00,VWS V14.01,2013-02-27 02:32:00,
2013-02-26 21:37:00,36.9,28.4,30.06,ESE,112,2.2,2.9,71,0.00,,---,0.00,VWS V14.01,2013-02-27 02:37:00,
2013-02-26 21:42:00,37.0,28.2,30.06,SE,135,3.4,3.4,70,0.00,,---,0.00,VWS V14.01,2013-02-27 02:42:00,
2013-02-26 21:47:00,37.0,28.2,30.06,SSE,158,2.2,2.9,70,0.00,,---,0.00,VWS V14.01,2013-02-27 02:47:00,
2013-02-26 21:52:00,37.2,28.4,30.06,South,180,2.2,2.7,70,0.00,,---,0.00,VWS V14.01,2013-02-27 02:52:00,
2013-02-26 21:57:00,37.4,28.5,30.06,SSE,158,2.5,2.7,70,0.00,,---,0.00,VWS V14.01,2013-02-27 02:57:00,
2013-02-26 22:02:00,37.4,28.5,30.06,South,180,2.5,2.5,70,0.00,,---,0.00,VWS V14.01,2013-02-27 03:02:00,
2013-02-26 22:07:00,37.4,28.5,30.06,SSE,158,2.7,2.7,70,0.00,,---,0.00,VWS V14.01,2013-02-27 03:07:00,
2013-02-26 22:12:00,37.4,28.9,30.06,South,180,1.3,1.6,71,0.00,,---,0.00,VWS V14.01,2013-02-27 03:12:00,
2013-02-26 22:17:00,37.6,29.0,30.06,South,180,2.5,3.6,71,0.00,,---,0.00,VWS V14.01,2013-02-27 03:17:00,
2013-02-26 22:22:00,37.6,29.0,30.06,ESE,112,2.5,3.4,71,0.00,,---,0.00,VWS V14.01,2013-02-27 03:22:00,
2013-02-26 22:28:00,37.6,29.0,30.06,SSE,158,2.7,3.4,71,0.00,,---,0.00,VWS V14.01,2013-02-27 03:28:00,
2013-02-26 22:33:00,37.8,29.2,30.06,SSW,202,2.0,2.0,71,0.00,,---,0.00,VWS V14.01,2013-02-27 03:33:00,
2013-02-26 22:38:00,37.8,29.2,30.06,South,180,2.5,2.9,71,0.00,,---,0.00,VWS V14.01,2013-02-27 03:38:00,
2013-02-26 22:43:00,37.9,29.4,30.03,SSE,158,2.5,2.5,71,0.00,,---,0.00,VWS V14.01,2013-02-27 03:43:00,
2013-02-26 22:48:00,37.9,29.7,30.03,South,180,2.9,3.4,72,0.00,,---,0.00,VWS V14.01,2013-02-27 03:48:00,
2013-02-26 22:53:00,37.9,29.4,30.03,SSW,202,2.5,2.7,71,0.00,,---,0.00,VWS V14.01,2013-02-27 03:53:00,
2013-02-26 22:58:00,38.1,29.6,30.03,SE,135,2.5,3.1,71,0.00,,---,0.00,VWS V14.01,2013-02-27 03:58:00,
2013-02-26 23:03:00,38.3,29.7,30.03,SE,135,2.5,3.4,71,0.00,,---,0.00,VWS V14.01,2013-02-27 04:03:00,
2013-02-26 23:08:00,38.5,29.9,30.03,SSE,158,2.7,2.9,71,0.00,,---,0.00,VWS V14.01,2013-02-27 04:08:00,
2013-02-26 23:13:00,38.5,29.9,30.00,SSE,158,2.9,2.9,71,0.00,,---,0.00,VWS V14.01,2013-02-27 04:13:00,
2013-02-26 23:18:00,38.5,30.2,30.00,South,180,4.3,4.3,72,0.00,,---,0.00,VWS V14.01,2013-02-27 04:18:00,
2013-02-26 23:23:00,38.5,30.2,30.00,South,180,1.6,4.0,72,0.00,,---,0.00,VWS V14.01,2013-02-27 04:23:00,
2013-02-26 23:29:00,38.5,30.2,30.00,South,180,2.5,3.4,72,0.00,,---,0.00,VWS V14.01,2013-02-27 04:29:00,
2013-02-26 23:34:00,38.5,30.2,30.00,SE,135,2.5,3.6,72,0.00,,---,0.00,VWS V14.01,2013-02-27 04:34:00,
2013-02-26 23:39:00,38.7,30.8,30.00,SSE,158,3.4,3.4,73,0.00,,---,0.00,VWS V14.01,2013-02-27 04:39:00,
2013-02-26 23:44:00,38.7,30.8,30.00,SSE,158,2.5,2.9,73,0.00,,---,0.00,VWS V14.01,2013-02-27 04:44:00,
2013-02-26 23:49:00,38.7,30.8,30.00,South,180,2.9,3.4,73,0.00,,---,0.00,VWS V14.01,2013-02-27 04:49:00,
2013-02-26 23:54:00,38.7,31.1,30.00,SSW,202,1.6,3.4,74,0.00,,---,0.00,VWS V14.01,2013-02-27 04:54:00,
2013-02-26 23:59:00,38.8,31.3,30.00,South,180,3.1,3.4,74,0.00,,---,0.00,VWS V14.01,2013-02-27 04:59:00,